RH
89 74 70 65 59 49 42 35 40 46 49 54 59 50 48 49 49 45 41 36 34 31 30 29 30 26 24 23 23 23 22 23 22 22 23 23 24 26 27 27 29 30 33
85 72 73 69 65 60 55 48 50 52 55 62 64 51 50 52 50 48 40 35 35 33 33 31 28 29 28 28 26 26 27 27 27 27 28 29 32 34 37 38 38 39 40
86 78 82 74 69 62 58 58 54 55 55 67 63 53 49 51 51 48 43 40 38 38 35 35 32 32 33 33 32 33 35 34 34 38 39 42 43 45 44 45 44 45 46
92 87 84 71 66 60 57 54 53 54 61 63 63 54 50 51 52 51 47 43 42 40 38 39 36 36 37 36 38 37 41 45 43 46 47 49 50 51 50 51 52 52 52
91 94 88 77 69 58 55 55 56 56 62 64 62 55 53 53 54 54 48 46 46 43 41 42 39 39 39 39 40 41 44 43 46 51 52 57 57 58 56 58 58 55 55
94 95 91 84 73 62 59 61 63 62 60 63 65 59 59 60 59 60 56 54 51 47 44 42 40 39 40 40 43 48 50 51 54 56 58 59 63 60 62 61 64 61 55
97 95 95 85 76 74 68 64 68 73 71 68 70 68 67 68 68 67 67 64 57 56 51 47 42 40 41 43 52 55 55 50 56 61 59 62 63 64 64 65 66 69 65
96 98 98 90 84 84 81 72 72 75 75 73 73 68 71 74 75 79 71 69 65 64 62 61 60 56 54 51 58 61 65 57 62 68 66 64 64 67 69 70 70 69 70
97 97 96 92 87 85 84 80 74 75 74 75 73 70 72 76 83 77 75 72 72 69 69 67 64 65 65 63 63 62 65 65 67 69 70 70 70 70 73 80 80 75 76
92 92 89 89 90 89 86 84 82 79 76 76 77 75 77 81 81 76 76 76 76 73 69 68 66 70 71 66 68 68 66 72 72 73 74 73 71 71 81 88 87 82 76
88 91 93 93 92 91 90 94 92 87 86 79 79 78 80 81 80 78 74 74 77 79 78 76 75 76 78 73 69 70 72 73 76 72 74 72 74 75 83 88 89 85 76
81 88 93 94 96 92 94 97 94 91 89 83 79 80 81 81 81 81 81 83 84 85 86 84 84 84 81 76 77 74 70 70 70 72 72 72 66 77 76 82 88 82 77
77 83 89 89 90 90 95 94 95 91 88 86 82 83 83 84 84 85 86 87 85 86 86 85 84 85 86 84 83 82 79 74 70 70 71 68 72 76 74 72 79 85 79
68 77 77 82 86 88 89 91 92 90 87 83 81 83 84 85 86 87 89 91 89 87 90 85 89 87 88 88 86 84 82 83 80 77 79 81 80 84 86 87 89 90 84
57 64 72 74 74 76 80 85 82 83 82 84 86 84 84 88 89 91 93 92 90 88 87 88 90 91 88 90 87 87 87 87 88 85 83 84 87 92 94 97 96 94 91
57 58 58 62 64 65 66 66 67 75 85 87 89 89 90 92 92 90 94 90 89 90 87 89 89 91 92 92 90 89 88 91 91 91 91 91 93 97 98 99 99 98 94
56 61 64 61 57 59 61 62 66 67 67 70 76 82 85 86 87 89 89 88 86 87 85 82 88 88 89 89 89 91 91 94 92 92 92 93 97 97 97 98 99 99 97
50 53 56 59 61 64 65 66 67 69 69 65 68 68 68 74 78 81 82 84 84 84 84 83 83 84 85 87 90 94 94 91 88 93 97 95 97 95 94 96 98 98 98
52 55 57 60 61 60 57 60 64 68 70 67 66 67 70 71 68 70 74 79 84 86 87 87 86 84 82 83 87 90 87 89 92 95 95 95 98 98 96 96 97 98 98
49 52 54 56 59 64 63 63 62 61 64 66 65 61 60 61 62 67 69 70 73 77 78 78 77 80 85 85 90 86 89 94 93 95 95 96 96 96 96 96 97 97 96
49 51 55 58 60 61 59 61 64 64 63 65 65 63 62 61 62 63 67 67 74 75 77 77 75 82 85 84 89 89 89 94 94 96 96 98 98 99 98 98 97 97 99
58 58 57 56 58 60 60 58 62 65 66 67 66 67 65 65 61 64 65 67 68 70 72 76 73 76 79 81 89 94 95 95 93 94 97 96 96 98 97 89 91 87 95
68 67 67 67 61 61 61 62 63 65 67 66 66 65 65 65 66 65 67 69 70 68 67 70 73 76 81 86 88 89 93 95 95 98 95 89 90 93 93 89 84 94 95
74 73 73 71 71 67 71 72 72 74 71 68 68 69 68 70 71 67 66 68 70 68 66 69 71 75 80 84 86 90 88 95 96 92 92 96 92 88 90 89 83 94 97
80 78 76 78 77 75 74 75 77 77 74 74 73 75 77 77 78 79 78 74 72 75 78 78 77 76 74 78 83 85 85 94 89 87 92 99 98 95 87 91 94 95 93
74 79 82 83 84 84 83 80 81 83 80 77 77 76 76 80 83 84 88 88 88 92 92 93 94 92 93 93 93 94 94 89 99 99 97 98 97 93 94 97 97 97 95